Regional Weather Roundup
Issued by NWS

Home | Current Version | Previous Version | Graphics & Text | Print | Product List | Glossary On
Versions: 1 2 3 4 5 6 7 8 9 10 11 12 13 14 15 16 17 18 19 20 21 22 23 24 25 26 27
000
ASUS45 KPSR 200510
RWRAZ

ARIZONA HOURLY REGIONAL WEATHER ROUNDUP
NATIONAL WEATHER SERVICE PHOENIX AZ
1000 PM MST MON FEB 19 2018

NOTE: FAIR INDICATES FEW OR NO CLOUDS BELOW 12,000 FEET WITH NO
SIGNIFICANT WEATHER AND/OR OBSTRUCTIONS TO VISIBILITY.

AZZ001>003-036-200600-
NORTHWEST ARIZONA

CITY           SKY/WX    TMP DP  RH WIND       PRES   REMARKS
BULLHEAD CITY  CLEAR     46  16  29 E7        29.89R
KINGMAN        CLEAR     29  15  56 S8        29.84R WCI  21
$$

AZZ004>008-015-016-018-200600-
NORTH CENTRAL ARIZONA

CITY           SKY/WX    TMP DP  RH WIND       PRES   REMARKS
GRAND CANYON   CLOUDY    19  18  95 SW9       29.75R WCI   8
WILLIAMS       MOCLDY    16  12  86 SW8       29.75R WCI   5
PRESCOTT       CLEAR     24  10  55 CALM      29.83R
FLAGSTAFF      CLOUDY    18  10  71 W9        29.77R WCI   7
PAYSON         CLOUDY    32   1  27 VRB5G13   29.83R WCI  27
PAGE           PTCLDY    35  -2  20 W13G21    29.73R WCI  26
$$

AZZ009>014-017-200600-
NORTHEAST ARIZONA

CITY           SKY/WX    TMP DP  RH WIND       PRES   REMARKS
WINSLOW        CLEAR     28   4  35 W6        29.81R WCI  22
SAINT JOHNS    LGT SNOW  31  30  96 W20G25    29.77R FOG     WCI  19
WINDOW ROCK    LGT SNOW  23  17  78 W15G21    29.75R WCI  10
SHOW LOW       LGT SNOW  28  25  86 SW15G24   29.78R WCI  17
$$

AZZ540-542>544-546-548-200600-
GREATER PHOENIX AREA

CITY           SKY/WX    TMP DP  RH WIND       PRES   REMARKS
PHOENIX        MOCLDY    52   5  15 SW8       29.86R
BUCKEYE        PTCLDY    46   7  19 W6        29.88R
LUKE AFB       CLEAR     49   8  19 SW6       29.86R
DEER VALLEY    CLEAR     45   9  23 CALM      29.85R
SCOTTSDALE     MOCLDY    48  11  22 CALM      29.87R
MESA-GATEWAY   MOCLDY    52   7  16 NW8       29.89R
$$

AZZ539-553-200600-
SOUTHWEST MARICOPA COUNTY AND PINAL COUNTY

CITY           SKY/WX    TMP DP  RH WIND       PRES   REMARKS
CASA GRANDE      N/A     53  19  26 W7        29.89R
GILA BEND      FAIR      50  13  22 SW7       29.90R
$$

AZZ503-504-507>509-200600-
SOUTHEAST ARIZONA

CITY           SKY/WX    TMP DP  RH WIND       PRES   REMARKS
TUCSON         CLOUDY    47  40  76 N10       29.89R
DAVIS-MONTHAN  MOCLDY    45  40  83 NW12      29.88R
NOGALES        CLOUDY    49  41  74 SW13      29.88R
SIERRA VISTA   PTCLDY    48  30  49 W14G23    29.88R
DOUGLAS        CLOUDY    53  38  56 S14       29.87R
SAFFORD        CLOUDY    45  35  68 NW22G32   29.81R
$$

AZZ532-200600-
SOUTHWEST ARIZONA

CITY           SKY/WX    TMP DP  RH WIND       PRES   REMARKS
YUMA           CLEAR     50  27  40 W5        29.94R
$$

CAZ041-043-047-048-061-525>527-560>570-200600-
SOUTHERN CALIFORNIA

CITY           SKY/WX    TMP DP  RH WIND       PRES   REMARKS
DOWNTOWN L.A.  LGT RAIN  50  15  24 NW9G18    29.99R
L.A. AIRPORT   CLEAR     50  18  28 N9        30.00R
SAN DIEGO      PTCLDY    55  34  45 NW12      30.00R
BURBANK        CLEAR     47  18  31 NW10      29.98R
ONTARIO        PTCLDY    47  17  30 CALM      29.96R
RIVERSIDE      CLEAR     43  14  31 S6        29.96R
PALM SPRINGS   PTCLDY    49  31  49 CALM      29.94R
EL CENTRO NAS  CLEAR     52  24  33 W16       29.96R
IMPERIAL       CLEAR     51  27  39 W15       29.93R
BLYTHE         PTCLDY    49   8  19 N8        29.92R
NEEDLES        CLEAR     48  14  25 NW5       29.90R
$$

NVZ020-UTZ003-200600-
SOUTHERN NEVADA-UTAH

CITY           SKY/WX    TMP DP  RH WIND       PRES   REMARKS
LAS VEGAS      CLEAR     42   6  22 N23G30    29.87R
SALT LAKE CITY MOCLDY    26  16  65 SW3       29.77R
$$

NMZ009-TXZ055-200600-
NEW MEXICO-WEST TEXAS

CITY           SKY/WX    TMP DP  RH WIND       PRES   REMARKS
ALBUQUERQUE    CLOUDY    51  27  39 SW17G28   29.64R
EL PASO        PTCLDY    58  37  45 W23G32    29.80R
$$


........................KEY........................
SKY/WX - SKY CONDITION/WEATHER
TMP    - TEMPERATURE IN FAHRENHEIT
DP     - DEW POINT IN FAHRENHEIT
RH     - RELATIVE HUMIDITY IN PERCENT
WIND   - DIRECTION AND SPEED IN MILES PER HOUR (MPH)
VRB    - VARIABLE WIND DIRECTION
PRES   - MEAN SEA LEVEL PRESSURE IN INCHES OF MERCURY
         F - FALLING PRESSURE   R - RISING PRESSURE
         S - STEADY PRESSURE
VSB    - VISIBILITY IN MILES
HX     - HEAT INDEX IN FAHRENHEIT
WCI    - WIND CHILL INDEX IN FAHRENHEIT
TC     - TEMPERATURE IN CELSIUS WHICH IS ALSO KNOWN AS
         TEMPERATURE IN CENTIGRADE
AFB    - AIR FORCE BASE
         LUKE AFB IS LUKE AIR FORCE BASE
         DAVIS-MONTHAN IS DAVIS-MONTHAN AIR FORCE BASE
NAS    - NAVAL AIR STATION
         EL CENTRO NAS IS EL CENTRO NAVAL AIR STATION
N/A    - NOT AVAILABLE





USA.gov is the U.S. government's official web portal to all federal, state and local government web resources and services.